Year,Month,Day,Hour,Minute,Value (Times are PST for temperature in C)
2015,08,03,00,00,17.40
2015,08,03,00,01,17.40
2015,08,03,00,02,17.30
2015,08,03,00,03,17.30
2015,08,03,00,04,17.30
2015,08,03,00,05,17.30
2015,08,03,00,06,17.20
2015,08,03,00,07,17.20
2015,08,03,00,08,17.20
2015,08,03,00,09,17.20
2015,08,03,00,10,17.10
2015,08,03,00,11,17.10
2015,08,03,00,12,17.10
2015,08,03,00,13,17.10
2015,08,03,00,14,17.00
2015,08,03,00,15,17.00
2015,08,03,00,16,17.00
2015,08,03,00,17,16.90
2015,08,03,00,18,16.90
2015,08,03,00,19,16.90
2015,08,03,00,20,16.90
2015,08,03,00,21,16.80
2015,08,03,00,22,16.80
2015,08,03,00,23,16.80
2015,08,03,00,24,16.80
2015,08,03,00,25,16.80
2015,08,03,00,26,16.80
2015,08,03,00,27,16.80
2015,08,03,00,28,16.80
2015,08,03,00,29,16.70
2015,08,03,00,30,16.70
2015,08,03,00,31,16.70
2015,08,03,00,32,16.70
2015,08,03,00,33,16.70
2015,08,03,00,34,16.60
2015,08,03,00,35,16.60
2015,08,03,00,36,16.60
2015,08,03,00,37,16.60
2015,08,03,00,38,16.50
2015,08,03,00,39,16.50
2015,08,03,00,40,16.50
2015,08,03,00,41,16.50
2015,08,03,00,42,16.50
2015,08,03,00,43,16.50
2015,08,03,00,44,16.40
2015,08,03,00,45,16.40
2015,08,03,00,46,16.40
2015,08,03,00,47,16.40
2015,08,03,00,48,16.40
2015,08,03,00,49,16.30
2015,08,03,00,50,16.30
2015,08,03,00,51,16.30
2015,08,03,00,52,16.30
2015,08,03,00,53,16.30
2015,08,03,00,54,16.30
2015,08,03,00,55,16.30
2015,08,03,00,56,16.20
2015,08,03,00,57,16.20
2015,08,03,00,58,16.20
2015,08,03,00,59,16.20
2015,08,03,01,00,16.20
2015,08,03,01,01,16.10
2015,08,03,01,02,16.10
2015,08,03,01,03,16.10
2015,08,03,01,04,16.10
2015,08,03,01,05,16.10
2015,08,03,01,06,16.10
2015,08,03,01,07,16.10
2015,08,03,01,08,16.10
2015,08,03,01,09,16.20
2015,08,03,01,10,16.20
2015,08,03,01,11,16.20
2015,08,03,01,12,16.20
2015,08,03,01,13,16.20
2015,08,03,01,14,16.20
2015,08,03,01,15,16.10
2015,08,03,01,16,16.10
2015,08,03,01,17,16.10
2015,08,03,01,18,16.10
2015,08,03,01,19,16.10
2015,08,03,01,20,16.00
2015,08,03,01,21,16.00
2015,08,03,01,22,16.00
2015,08,03,01,23,16.00
2015,08,03,01,24,15.90
2015,08,03,01,25,15.90
2015,08,03,01,26,15.90
2015,08,03,01,27,15.90
2015,08,03,01,28,15.90
2015,08,03,01,29,15.90
2015,08,03,01,30,15.90
2015,08,03,01,31,15.90
2015,08,03,01,32,15.90
2015,08,03,01,33,15.90
2015,08,03,01,34,15.90
2015,08,03,01,35,15.90
2015,08,03,01,36,15.80
2015,08,03,01,37,15.90
2015,08,03,01,38,15.90
2015,08,03,01,39,15.90
2015,08,03,01,40,15.90
2015,08,03,01,41,15.90
2015,08,03,01,42,16.00
2015,08,03,01,43,16.00
2015,08,03,01,44,16.10
2015,08,03,01,45,16.10
2015,08,03,01,46,16.10
2015,08,03,01,47,16.10
2015,08,03,01,48,16.10
2015,08,03,01,49,16.10
2015,08,03,01,50,16.10
2015,08,03,01,51,16.10
2015,08,03,01,52,16.10
2015,08,03,01,53,16.00
2015,08,03,01,54,16.00
2015,08,03,01,55,16.00
2015,08,03,01,56,16.00
2015,08,03,01,57,15.90
2015,08,03,01,58,15.90
2015,08,03,01,59,15.90
2015,08,03,02,00,15.90
2015,08,03,02,01,15.90
2015,08,03,02,02,15.90
2015,08,03,02,03,15.90
2015,08,03,02,04,15.90
2015,08,03,02,05,15.90
2015,08,03,02,06,15.90
2015,08,03,02,07,15.90
2015,08,03,02,08,15.90
2015,08,03,02,09,15.90
2015,08,03,02,10,15.90
2015,08,03,02,11,15.90
2015,08,03,02,12,15.80
2015,08,03,02,13,15.80
2015,08,03,02,14,15.80
2015,08,03,02,15,15.80
2015,08,03,02,16,15.80
2015,08,03,02,17,15.80
2015,08,03,02,18,15.80
2015,08,03,02,19,15.80
2015,08,03,02,20,15.80
2015,08,03,02,21,15.80
2015,08,03,02,22,15.70
2015,08,03,02,23,15.70
2015,08,03,02,24,15.70
2015,08,03,02,25,15.70
2015,08,03,02,26,15.70
2015,08,03,02,27,15.70
2015,08,03,02,28,15.70
2015,08,03,02,29,15.70
2015,08,03,02,30,15.70
2015,08,03,02,31,15.70
2015,08,03,02,32,15.70
2015,08,03,02,33,15.60
2015,08,03,02,34,15.60
2015,08,03,02,35,15.60
2015,08,03,02,36,15.60
2015,08,03,02,37,15.60
2015,08,03,02,38,15.50
2015,08,03,02,39,15.50
2015,08,03,02,40,15.40
2015,08,03,02,41,15.40
2015,08,03,02,42,15.30
2015,08,03,02,43,15.30
2015,08,03,02,44,15.30
2015,08,03,02,45,15.20
2015,08,03,02,46,15.20
2015,08,03,02,47,15.20
2015,08,03,02,48,15.10
2015,08,03,02,49,15.10
2015,08,03,02,50,15.00
2015,08,03,02,51,15.00
2015,08,03,02,52,14.90
2015,08,03,02,53,14.90
2015,08,03,02,54,14.90
2015,08,03,02,55,14.80
2015,08,03,02,56,14.80
2015,08,03,02,57,14.80
2015,08,03,02,58,14.80
2015,08,03,02,59,14.70
2015,08,03,03,00,14.70
2015,08,03,03,01,14.70
2015,08,03,03,02,14.60
2015,08,03,03,03,14.60
2015,08,03,03,04,14.60
2015,08,03,03,05,14.60
2015,08,03,03,06,14.60
2015,08,03,03,07,14.60
2015,08,03,03,08,14.50
2015,08,03,03,09,14.50
2015,08,03,03,10,14.50
2015,08,03,03,11,14.50
2015,08,03,03,12,14.50
2015,08,03,03,13,14.40
2015,08,03,03,14,14.40
2015,08,03,03,15,14.40
2015,08,03,03,16,14.40
2015,08,03,03,17,14.40
2015,08,03,03,18,14.40
2015,08,03,03,19,14.40
2015,08,03,03,20,14.40
2015,08,03,03,21,14.30
2015,08,03,03,22,14.30
2015,08,03,03,23,14.30
2015,08,03,03,24,14.30
2015,08,03,03,25,14.30
2015,08,03,03,26,14.30
2015,08,03,03,27,14.30
2015,08,03,03,28,14.30
2015,08,03,03,29,14.30
2015,08,03,03,30,14.30
2015,08,03,03,31,14.30
2015,08,03,03,32,14.20
2015,08,03,03,33,14.20
2015,08,03,03,34,14.20
2015,08,03,03,35,14.20
2015,08,03,03,36,14.20
2015,08,03,03,37,14.10
2015,08,03,03,38,14.10
2015,08,03,03,39,14.10
2015,08,03,03,40,14.10
2015,08,03,03,41,14.10
2015,08,03,03,42,14.10
2015,08,03,03,43,14.10
2015,08,03,03,44,14.00
2015,08,03,03,45,14.00
2015,08,03,03,46,14.00
2015,08,03,03,47,14.00
2015,08,03,03,48,13.90
2015,08,03,03,49,13.90
2015,08,03,03,50,13.90
2015,08,03,03,51,13.90
2015,08,03,03,52,13.90
2015,08,03,03,53,13.90
2015,08,03,03,54,14.00
2015,08,03,03,55,14.00
2015,08,03,03,56,14.10
2015,08,03,03,57,14.10
2015,08,03,03,58,14.00
2015,08,03,03,59,14.00
2015,08,03,04,00,14.00
2015,08,03,04,01,14.00
2015,08,03,04,02,14.00
2015,08,03,04,03,14.00
2015,08,03,04,04,13.90
2015,08,03,04,05,13.90
2015,08,03,04,06,13.90
2015,08,03,04,07,13.80
2015,08,03,04,08,13.80
2015,08,03,04,09,13.80
2015,08,03,04,10,13.80
2015,08,03,04,11,13.70
2015,08,03,04,12,13.70
2015,08,03,04,13,13.70
2015,08,03,04,14,13.70
2015,08,03,04,15,13.70
2015,08,03,04,16,13.70
2015,08,03,04,17,13.70
2015,08,03,04,18,13.70
2015,08,03,04,19,13.70
2015,08,03,04,20,13.70
2015,08,03,04,21,13.60
2015,08,03,04,22,13.60
2015,08,03,04,23,13.60
2015,08,03,04,24,13.60
2015,08,03,04,25,13.60
2015,08,03,04,26,13.60
2015,08,03,04,27,13.60
2015,08,03,04,28,13.60
2015,08,03,04,29,13.60
2015,08,03,04,30,13.60
2015,08,03,04,31,13.60
2015,08,03,04,32,13.60
2015,08,03,04,33,13.50
2015,08,03,04,34,13.60
2015,08,03,04,35,13.50
2015,08,03,04,36,13.50
2015,08,03,04,37,13.50
2015,08,03,04,38,13.50
2015,08,03,04,39,13.50
2015,08,03,04,40,13.50
2015,08,03,04,41,13.40
2015,08,03,04,42,13.40
2015,08,03,04,43,13.40
2015,08,03,04,44,13.40
2015,08,03,04,45,13.50
2015,08,03,04,46,13.50
2015,08,03,04,47,13.50
2015,08,03,04,48,13.50
2015,08,03,04,49,13.50
2015,08,03,04,50,13.50
2015,08,03,04,51,13.50
2015,08,03,04,52,13.50
2015,08,03,04,53,13.50
2015,08,03,04,54,13.50
2015,08,03,04,55,13.40
2015,08,03,04,56,13.50
2015,08,03,04,57,13.60
2015,08,03,04,58,13.70
2015,08,03,04,59,13.70
2015,08,03,05,00,13.80
2015,08,03,05,01,13.90
2015,08,03,05,02,13.90
2015,08,03,05,03,13.90
2015,08,03,05,04,13.90
2015,08,03,05,05,13.90
2015,08,03,05,06,13.90
2015,08,03,05,07,13.90
2015,08,03,05,08,13.90
2015,08,03,05,09,13.80
2015,08,03,05,10,13.80
2015,08,03,05,11,13.80
2015,08,03,05,12,13.80
2015,08,03,05,13,13.80
2015,08,03,05,14,13.70
2015,08,03,05,15,13.70
2015,08,03,05,16,13.70
2015,08,03,05,17,13.70
2015,08,03,05,18,13.70
2015,08,03,05,19,13.70
2015,08,03,05,20,13.70
2015,08,03,05,21,13.60
2015,08,03,05,22,13.70
2015,08,03,05,23,13.70
2015,08,03,05,24,13.70
2015,08,03,05,25,13.60
2015,08,03,05,26,13.60
2015,08,03,05,27,13.60
2015,08,03,05,28,13.60
2015,08,03,05,29,13.60
2015,08,03,05,30,13.60
2015,08,03,05,31,13.60
2015,08,03,05,32,13.50
2015,08,03,05,33,13.50
2015,08,03,05,34,13.50
2015,08,03,05,35,13.50
2015,08,03,05,36,13.40
2015,08,03,05,37,13.40
2015,08,03,05,38,13.40
2015,08,03,05,39,13.40
2015,08,03,05,40,13.40
2015,08,03,05,41,13.40
2015,08,03,05,42,13.40
2015,08,03,05,43,13.30
2015,08,03,05,44,13.30
2015,08,03,05,45,13.30
2015,08,03,05,46,13.30
2015,08,03,05,47,13.30
2015,08,03,05,48,13.30
2015,08,03,05,49,13.20
2015,08,03,05,50,13.20
2015,08,03,05,51,13.20
2015,08,03,05,52,13.20
2015,08,03,05,53,13.20
2015,08,03,05,54,13.20
2015,08,03,05,55,13.20
2015,08,03,05,56,13.10
2015,08,03,05,57,13.10
2015,08,03,05,58,13.10
2015,08,03,05,59,13.10
2015,08,03,06,00,13.10
2015,08,03,06,01,13.10
2015,08,03,06,02,13.10
2015,08,03,06,03,13.00
2015,08,03,06,04,13.00
2015,08,03,06,05,12.90
2015,08,03,06,06,12.90
2015,08,03,06,07,12.90
2015,08,03,06,08,12.90
2015,08,03,06,09,12.90
2015,08,03,06,10,12.80
2015,08,03,06,11,12.80
2015,08,03,06,12,12.80
2015,08,03,06,13,12.80
2015,08,03,06,14,12.80
2015,08,03,06,15,12.80
2015,08,03,06,16,12.70
2015,08,03,06,17,12.70
2015,08,03,06,18,12.70
2015,08,03,06,19,12.70
2015,08,03,06,20,12.70
2015,08,03,06,21,12.70
2015,08,03,06,22,12.70
2015,08,03,06,23,12.70
2015,08,03,06,24,12.70
2015,08,03,06,25,12.70
2015,08,03,06,26,12.80
2015,08,03,06,27,12.80
2015,08,03,06,28,12.80
2015,08,03,06,29,12.80
2015,08,03,06,30,12.80
2015,08,03,06,31,12.80
2015,08,03,06,32,12.80
2015,08,03,06,33,12.80
2015,08,03,06,34,12.80
2015,08,03,06,35,12.80
2015,08,03,06,36,12.80
2015,08,03,06,37,12.80
2015,08,03,06,38,12.80
2015,08,03,06,39,12.80
2015,08,03,06,40,12.70
2015,08,03,06,41,12.70
2015,08,03,06,42,12.70
2015,08,03,06,43,12.70
2015,08,03,06,44,12.70
2015,08,03,06,45,12.70
2015,08,03,06,46,12.70
2015,08,03,06,47,12.70
2015,08,03,06,48,12.70
2015,08,03,06,49,12.70
2015,08,03,06,50,12.70
2015,08,03,06,51,12.70
2015,08,03,06,52,12.80
2015,08,03,06,53,12.80
2015,08,03,06,54,12.80
2015,08,03,06,55,12.80
2015,08,03,06,56,12.80
2015,08,03,06,57,12.90
2015,08,03,06,58,12.90
2015,08,03,06,59,12.90
2015,08,03,07,00,12.90
2015,08,03,07,01,12.90
2015,08,03,07,02,12.90
2015,08,03,07,03,13.00
2015,08,03,07,04,13.00
2015,08,03,07,05,13.00
2015,08,03,07,06,13.00
2015,08,03,07,07,13.10
2015,08,03,07,08,13.10
2015,08,03,07,09,13.20
2015,08,03,07,10,13.20
2015,08,03,07,11,13.30
2015,08,03,07,12,13.30
2015,08,03,07,13,13.40
2015,08,03,07,14,13.40
2015,08,03,07,15,13.50
2015,08,03,07,16,13.60
2015,08,03,07,17,13.70
2015,08,03,07,18,13.80
2015,08,03,07,19,13.90
2015,08,03,07,20,13.90
2015,08,03,07,21,14.10
2015,08,03,07,22,14.20
2015,08,03,07,23,14.30
2015,08,03,07,24,14.50
2015,08,03,07,25,14.60
2015,08,03,07,26,14.70
2015,08,03,07,27,14.80
2015,08,03,07,28,14.90
2015,08,03,07,29,15.00
2015,08,03,07,30,15.10
2015,08,03,07,31,15.20
2015,08,03,07,32,15.30
2015,08,03,07,33,15.30
2015,08,03,07,34,15.50
2015,08,03,07,35,15.60
2015,08,03,07,36,15.70
2015,08,03,07,37,15.80
2015,08,03,07,38,15.90
2015,08,03,07,39,16.00
2015,08,03,07,40,16.10
2015,08,03,07,41,16.20
2015,08,03,07,42,16.20
2015,08,03,07,43,16.30
2015,08,03,07,44,16.40
2015,08,03,07,45,16.50
2015,08,03,07,46,16.60
2015,08,03,07,47,16.70
2015,08,03,07,48,16.80
2015,08,03,07,49,16.90
2015,08,03,07,50,16.90
2015,08,03,07,51,17.00
2015,08,03,07,52,17.10
2015,08,03,07,53,17.30
2015,08,03,07,54,17.30
2015,08,03,07,55,17.30
2015,08,03,07,56,17.40
2015,08,03,07,57,17.40
2015,08,03,07,58,17.40
2015,08,03,07,59,17.40
2015,08,03,08,00,17.50
2015,08,03,08,01,17.60
2015,08,03,08,02,17.70
2015,08,03,08,03,17.80
2015,08,03,08,04,17.80
2015,08,03,08,05,17.80
2015,08,03,08,06,17.90
2015,08,03,08,07,17.90
2015,08,03,08,08,17.90
2015,08,03,08,09,17.90
2015,08,03,08,10,17.80
2015,08,03,08,11,17.80
2015,08,03,08,12,17.90
2015,08,03,08,13,17.90
2015,08,03,08,14,18.00
2015,08,03,08,15,18.10
2015,08,03,08,16,18.10
2015,08,03,08,17,18.10
2015,08,03,08,18,18.10
2015,08,03,08,19,18.10
2015,08,03,08,20,18.10
2015,08,03,08,21,18.10
2015,08,03,08,22,18.20
2015,08,03,08,23,18.20
2015,08,03,08,24,18.20
2015,08,03,08,25,18.20
2015,08,03,08,26,18.20
2015,08,03,08,27,18.30
2015,08,03,08,28,18.30
2015,08,03,08,29,18.30
2015,08,03,08,30,18.30
2015,08,03,08,31,18.30
2015,08,03,08,32,18.40
2015,08,03,08,33,18.40
2015,08,03,08,34,18.40
2015,08,03,08,35,18.40
2015,08,03,08,36,18.40
2015,08,03,08,37,18.50
2015,08,03,08,38,18.50
2015,08,03,08,39,18.60
2015,08,03,08,40,18.60
2015,08,03,08,41,18.60
2015,08,03,08,42,18.70
2015,08,03,08,43,18.80
2015,08,03,08,44,18.80
2015,08,03,08,45,18.80
2015,08,03,08,46,18.90
2015,08,03,08,47,18.90
2015,08,03,08,48,19.00
2015,08,03,08,49,19.00
2015,08,03,08,50,19.10
2015,08,03,08,51,19.10
2015,08,03,08,52,19.10
2015,08,03,08,53,19.10
2015,08,03,08,54,19.20
2015,08,03,08,55,19.20
2015,08,03,08,56,19.30
2015,08,03,08,57,19.40
2015,08,03,08,58,19.50
2015,08,03,08,59,19.60
2015,08,03,09,00,19.70
2015,08,03,09,01,19.70
2015,08,03,09,02,19.70
2015,08,03,09,03,19.60
2015,08,03,09,04,19.60
2015,08,03,09,05,19.60
2015,08,03,09,06,19.60
2015,08,03,09,07,19.60
2015,08,03,09,08,19.70
2015,08,03,09,09,19.80
2015,08,03,09,10,19.90
2015,08,03,09,11,19.90
2015,08,03,09,12,19.90
2015,08,03,09,13,19.80
2015,08,03,09,14,19.80
2015,08,03,09,15,19.80
2015,08,03,09,16,19.80
2015,08,03,09,17,19.80
2015,08,03,09,18,19.80
2015,08,03,09,19,19.80
2015,08,03,09,20,19.90
2015,08,03,09,21,19.90
2015,08,03,09,22,19.90
2015,08,03,09,23,20.00
2015,08,03,09,24,20.00
2015,08,03,09,25,20.10
2015,08,03,09,26,20.10
2015,08,03,09,27,20.10
2015,08,03,09,28,20.20
2015,08,03,09,29,20.30
2015,08,03,09,30,20.30
2015,08,03,09,31,20.40
2015,08,03,09,32,20.40
2015,08,03,09,33,20.50
2015,08,03,09,34,20.50
2015,08,03,09,35,20.50
2015,08,03,09,36,20.50
2015,08,03,09,37,20.40
2015,08,03,09,38,20.40
2015,08,03,09,39,20.30
2015,08,03,09,40,20.20
2015,08,03,09,41,20.20
2015,08,03,09,42,20.20
2015,08,03,09,43,20.30
2015,08,03,09,44,20.30
2015,08,03,09,45,20.40
2015,08,03,09,46,20.40
2015,08,03,09,47,20.50
2015,08,03,09,48,20.60
2015,08,03,09,49,20.60
2015,08,03,09,50,20.70
2015,08,03,09,51,20.70
2015,08,03,09,52,20.80
2015,08,03,09,53,20.80
2015,08,03,09,54,20.80
2015,08,03,09,55,20.80
2015,08,03,09,56,20.90
2015,08,03,09,57,21.00
2015,08,03,09,58,21.00
2015,08,03,09,59,21.10
2015,08,03,10,00,21.10
2015,08,03,10,01,21.10
2015,08,03,10,02,21.20
2015,08,03,10,03,21.20
2015,08,03,10,04,21.20
2015,08,03,10,05,21.20
2015,08,03,10,06,21.10
2015,08,03,10,07,21.10
2015,08,03,10,08,21.10
2015,08,03,10,09,21.10
2015,08,03,10,10,21.00
2015,08,03,10,11,21.00
2015,08,03,10,12,21.00
2015,08,03,10,13,21.00
2015,08,03,10,14,21.00
2015,08,03,10,15,21.10
2015,08,03,10,16,21.20
2015,08,03,10,17,21.10
2015,08,03,10,18,21.00
2015,08,03,10,19,20.90
2015,08,03,10,20,20.90
2015,08,03,10,21,20.80
2015,08,03,10,22,20.60
2015,08,03,10,23,20.50
2015,08,03,10,24,20.40
2015,08,03,10,25,20.30
2015,08,03,10,26,20.30
2015,08,03,10,27,20.20
2015,08,03,10,28,20.30
2015,08,03,10,29,20.30
2015,08,03,10,30,20.30
2015,08,03,10,31,20.40
2015,08,03,10,32,20.50
2015,08,03,10,33,20.50
2015,08,03,10,34,20.40
2015,08,03,10,35,20.40
2015,08,03,10,36,20.40
2015,08,03,10,37,20.30
2015,08,03,10,38,20.30
2015,08,03,10,39,20.30
2015,08,03,10,40,20.30
2015,08,03,10,41,20.30
2015,08,03,10,42,20.30
2015,08,03,10,43,20.40
2015,08,03,10,44,20.30
2015,08,03,10,45,20.30
2015,08,03,10,46,20.30
2015,08,03,10,47,20.30
2015,08,03,10,48,20.30
2015,08,03,10,49,20.30
2015,08,03,10,50,20.30
2015,08,03,10,51,20.40
2015,08,03,10,52,20.40
2015,08,03,10,53,20.60
2015,08,03,10,54,20.70
2015,08,03,10,55,20.80
2015,08,03,10,56,20.80
2015,08,03,10,57,20.80
2015,08,03,10,58,20.70
2015,08,03,10,59,20.60
2015,08,03,11,00,20.50
2015,08,03,11,01,20.50
2015,08,03,11,02,20.60
2015,08,03,11,03,20.70
2015,08,03,11,04,20.70
2015,08,03,11,05,20.80
2015,08,03,11,06,20.90
2015,08,03,11,07,20.90
2015,08,03,11,08,20.90
2015,08,03,11,09,20.70
2015,08,03,11,10,20.70
2015,08,03,11,11,20.70
2015,08,03,11,12,20.70
2015,08,03,11,13,20.70
2015,08,03,11,14,20.70
2015,08,03,11,15,20.70
2015,08,03,11,16,20.70
2015,08,03,11,17,20.80
2015,08,03,11,18,20.80
2015,08,03,11,19,20.80
2015,08,03,11,20,20.80
2015,08,03,11,21,20.80
2015,08,03,11,22,20.70
2015,08,03,11,23,20.70
2015,08,03,11,24,20.70
2015,08,03,11,25,20.70
2015,08,03,11,26,20.70
2015,08,03,11,27,20.70
2015,08,03,11,28,20.70
2015,08,03,11,29,20.70
2015,08,03,11,30,20.70
2015,08,03,11,31,20.80
2015,08,03,11,32,20.80
2015,08,03,11,33,20.70
2015,08,03,11,34,20.70
2015,08,03,11,35,20.70
2015,08,03,11,36,20.80
2015,08,03,11,37,20.80
2015,08,03,11,38,20.80
2015,08,03,11,39,20.80
2015,08,03,11,40,20.90
2015,08,03,11,41,20.90
2015,08,03,11,42,20.80
2015,08,03,11,43,20.70
2015,08,03,11,44,20.50
2015,08,03,11,45,20.40
2015,08,03,11,46,20.40
2015,08,03,11,47,20.40
2015,08,03,11,48,20.40
2015,08,03,11,49,20.50
2015,08,03,11,50,20.60
2015,08,03,11,51,20.70
2015,08,03,11,52,20.70
2015,08,03,11,53,20.80
2015,08,03,11,54,21.00
2015,08,03,11,55,21.10
2015,08,03,11,56,21.10
2015,08,03,11,57,21.10
2015,08,03,11,58,21.10
2015,08,03,11,59,21.20
2015,08,03,12,00,21.20
2015,08,03,12,01,21.20
2015,08,03,12,02,21.20
2015,08,03,12,03,21.20
2015,08,03,12,04,21.30
2015,08,03,12,05,21.30
2015,08,03,12,06,21.30
2015,08,03,12,07,21.30
2015,08,03,12,08,21.20
2015,08,03,12,09,21.10
2015,08,03,12,10,21.00
2015,08,03,12,11,20.90
2015,08,03,12,12,21.00
2015,08,03,12,13,21.10
2015,08,03,12,14,21.10
2015,08,03,12,15,21.10
2015,08,03,12,16,21.20
2015,08,03,12,17,21.30
2015,08,03,12,18,21.40
2015,08,03,12,19,21.40
2015,08,03,12,20,21.60
2015,08,03,12,21,21.70
2015,08,03,12,22,21.80
2015,08,03,12,23,21.80
2015,08,03,12,24,21.90
2015,08,03,12,25,21.90
2015,08,03,12,26,22.00
2015,08,03,12,27,22.10
2015,08,03,12,28,22.20
2015,08,03,12,29,22.40
2015,08,03,12,30,22.60
2015,08,03,12,31,22.80
2015,08,03,12,32,22.90
2015,08,03,12,33,23.00
2015,08,03,12,34,23.00
2015,08,03,12,35,23.10
2015,08,03,12,36,23.20
2015,08,03,12,37,23.30
2015,08,03,12,38,23.30
2015,08,03,12,39,23.40
2015,08,03,12,40,23.50
2015,08,03,12,41,23.60
2015,08,03,12,42,23.50
2015,08,03,12,43,23.50
2015,08,03,12,44,23.40
2015,08,03,12,45,23.30
2015,08,03,12,46,23.30
2015,08,03,12,47,23.20
2015,08,03,12,48,23.10
2015,08,03,12,49,23.10
2015,08,03,12,50,23.00
2015,08,03,12,51,23.10
2015,08,03,12,52,23.10
2015,08,03,12,53,23.10
2015,08,03,12,54,23.10
2015,08,03,12,55,23.10
2015,08,03,12,56,23.10
2015,08,03,12,57,23.10
2015,08,03,12,58,23.00
2015,08,03,12,59,23.00
2015,08,03,13,00,23.00
2015,08,03,13,01,23.00
2015,08,03,13,02,23.10
2015,08,03,13,03,23.20
2015,08,03,13,04,23.30
2015,08,03,13,05,23.30
2015,08,03,13,06,23.50
2015,08,03,13,07,23.60
2015,08,03,13,08,23.80
2015,08,03,13,09,23.90
2015,08,03,13,10,24.10
2015,08,03,13,11,24.30
2015,08,03,13,12,24.40
2015,08,03,13,13,24.40
2015,08,03,13,14,24.40
2015,08,03,13,15,24.50
2015,08,03,13,16,24.50
2015,08,03,13,17,24.50
2015,08,03,13,18,24.40
2015,08,03,13,19,24.40
2015,08,03,13,20,24.50
2015,08,03,13,21,24.50
2015,08,03,13,22,24.60
2015,08,03,13,23,24.60
2015,08,03,13,24,24.70
2015,08,03,13,25,24.70
2015,08,03,13,26,24.70
2015,08,03,13,27,24.70
2015,08,03,13,28,24.60
2015,08,03,13,29,24.60
2015,08,03,13,30,24.50
2015,08,03,13,31,24.50
2015,08,03,13,32,24.50
2015,08,03,13,33,24.40
2015,08,03,13,34,24.40
2015,08,03,13,35,24.20
2015,08,03,13,36,24.10
2015,08,03,13,37,24.00
2015,08,03,13,38,23.90
2015,08,03,13,39,23.70
2015,08,03,13,40,23.70
2015,08,03,13,41,23.60
2015,08,03,13,42,23.60
2015,08,03,13,43,23.50
2015,08,03,13,44,23.40
2015,08,03,13,45,23.40
2015,08,03,13,46,23.50
2015,08,03,13,47,23.60
2015,08,03,13,48,23.70
2015,08,03,13,49,23.70
2015,08,03,13,50,23.60
2015,08,03,13,51,23.40
2015,08,03,13,52,23.20
2015,08,03,13,53,23.00
2015,08,03,13,54,22.80
2015,08,03,13,55,22.70
2015,08,03,13,56,22.60
2015,08,03,13,57,22.60
2015,08,03,13,58,22.60
2015,08,03,13,59,22.60
2015,08,03,14,00,22.50
2015,08,03,14,01,22.50
2015,08,03,14,02,22.50
2015,08,03,14,03,22.50
2015,08,03,14,04,22.50
2015,08,03,14,05,22.60
2015,08,03,14,06,22.60
2015,08,03,14,07,22.70
2015,08,03,14,08,22.70
2015,08,03,14,09,22.70
2015,08,03,14,10,22.70
2015,08,03,14,11,22.70
2015,08,03,14,12,22.70
2015,08,03,14,13,22.60
2015,08,03,14,14,22.50
2015,08,03,14,15,22.40
2015,08,03,14,16,22.40
2015,08,03,14,17,22.40
2015,08,03,14,18,22.40
2015,08,03,14,19,22.40
2015,08,03,14,20,22.50
2015,08,03,14,21,22.60
2015,08,03,14,22,22.60
2015,08,03,14,23,22.50
2015,08,03,14,24,22.40
2015,08,03,14,25,22.30
2015,08,03,14,26,22.30
2015,08,03,14,27,22.30
2015,08,03,14,28,22.30
2015,08,03,14,29,22.40
2015,08,03,14,30,22.40
2015,08,03,14,31,22.40
2015,08,03,14,32,22.40
2015,08,03,14,33,22.30
2015,08,03,14,34,22.20
2015,08,03,14,35,22.20
2015,08,03,14,36,22.10
2015,08,03,14,37,22.10
2015,08,03,14,38,22.10
2015,08,03,14,39,22.10
2015,08,03,14,40,22.10
2015,08,03,14,41,22.10
2015,08,03,14,42,22.00
2015,08,03,14,43,21.90
2015,08,03,14,44,21.90
2015,08,03,14,45,21.80
2015,08,03,14,46,21.70
2015,08,03,14,47,21.70
2015,08,03,14,48,21.60
2015,08,03,14,49,21.50
2015,08,03,14,50,21.40
2015,08,03,14,51,21.40
2015,08,03,14,52,21.40
2015,08,03,14,53,21.40
2015,08,03,14,54,21.40
2015,08,03,14,55,21.50
2015,08,03,14,56,21.40
2015,08,03,14,57,21.50
2015,08,03,14,58,21.50
2015,08,03,14,59,21.50
2015,08,03,15,00,21.50
2015,08,03,15,01,21.50
2015,08,03,15,02,21.50
2015,08,03,15,03,21.50
2015,08,03,15,04,21.50
2015,08,03,15,05,21.50
2015,08,03,15,06,21.50
2015,08,03,15,07,21.50
2015,08,03,15,08,21.50
2015,08,03,15,09,21.50
2015,08,03,15,10,21.50
2015,08,03,15,11,21.50
2015,08,03,15,12,21.60
2015,08,03,15,13,21.50
2015,08,03,15,14,21.50
2015,08,03,15,15,21.50
2015,08,03,15,16,21.50
2015,08,03,15,17,21.40
2015,08,03,15,18,21.40
2015,08,03,15,19,21.40
2015,08,03,15,20,21.40
2015,08,03,15,21,21.50
2015,08,03,15,22,21.60
2015,08,03,15,23,21.60
2015,08,03,15,24,21.70
2015,08,03,15,25,21.80
2015,08,03,15,26,21.80
2015,08,03,15,27,21.90
2015,08,03,15,28,22.00
2015,08,03,15,29,22.20
2015,08,03,15,30,22.30
2015,08,03,15,31,22.30
2015,08,03,15,32,22.50
2015,08,03,15,33,22.50
2015,08,03,15,34,22.40
2015,08,03,15,35,22.30
2015,08,03,15,36,22.30
2015,08,03,15,37,22.30
2015,08,03,15,38,22.30
2015,08,03,15,39,22.30
2015,08,03,15,40,22.30
2015,08,03,15,41,22.30
2015,08,03,15,42,22.40
2015,08,03,15,43,22.40
2015,08,03,15,44,22.50
2015,08,03,15,45,22.50
2015,08,03,15,46,22.60
2015,08,03,15,47,22.80
2015,08,03,15,48,22.90
2015,08,03,15,49,23.00
2015,08,03,15,50,23.00
2015,08,03,15,51,23.10
2015,08,03,15,52,23.30
2015,08,03,15,53,23.40
2015,08,03,15,54,23.60
2015,08,03,15,55,23.70
2015,08,03,15,56,23.80
2015,08,03,15,57,23.80
2015,08,03,15,58,23.80
2015,08,03,15,59,23.80
2015,08,03,16,00,23.90
2015,08,03,16,01,23.90
2015,08,03,16,02,24.00
2015,08,03,16,03,24.00
2015,08,03,16,04,24.00
2015,08,03,16,05,24.00
2015,08,03,16,06,24.00
2015,08,03,16,07,24.10
2015,08,03,16,08,24.10
2015,08,03,16,09,24.10
2015,08,03,16,10,24.10
2015,08,03,16,11,24.10
2015,08,03,16,12,24.20
2015,08,03,16,13,24.20
2015,08,03,16,14,24.30
2015,08,03,16,15,24.30
2015,08,03,16,16,24.30
2015,08,03,16,17,24.40
2015,08,03,16,18,24.50
2015,08,03,16,19,24.50
2015,08,03,16,20,24.40
2015,08,03,16,21,24.30
2015,08,03,16,22,24.30
2015,08,03,16,23,24.20
2015,08,03,16,24,24.10
2015,08,03,16,25,24.10
2015,08,03,16,26,24.10
2015,08,03,16,27,24.10
2015,08,03,16,28,24.20
2015,08,03,16,29,24.40
2015,08,03,16,30,24.50
2015,08,03,16,31,24.40
2015,08,03,16,32,24.40
2015,08,03,16,33,24.40
2015,08,03,16,34,24.40
2015,08,03,16,35,24.40
2015,08,03,16,36,24.30
2015,08,03,16,37,24.20
2015,08,03,16,38,24.20
2015,08,03,16,39,24.20
2015,08,03,16,40,24.20
2015,08,03,16,41,24.30
2015,08,03,16,42,24.30
2015,08,03,16,43,24.40
2015,08,03,16,44,24.50
2015,08,03,16,45,24.50
2015,08,03,16,46,24.60
2015,08,03,16,47,24.80
2015,08,03,16,48,24.80
2015,08,03,16,49,24.90
2015,08,03,16,50,24.90
2015,08,03,16,51,25.00
2015,08,03,16,52,25.10
2015,08,03,16,53,25.20
2015,08,03,16,54,25.30
2015,08,03,16,55,25.30
2015,08,03,16,56,25.20
2015,08,03,16,57,25.00
2015,08,03,16,58,24.70
2015,08,03,16,59,24.60
2015,08,03,17,00,24.40
2015,08,03,17,01,24.40
2015,08,03,17,02,24.30
2015,08,03,17,03,24.30
2015,08,03,17,04,24.20
2015,08,03,17,05,24.00
2015,08,03,17,06,23.80
2015,08,03,17,07,23.70
2015,08,03,17,08,23.60
2015,08,03,17,09,23.50
2015,08,03,17,10,23.40
2015,08,03,17,11,23.30
2015,08,03,17,12,23.10
2015,08,03,17,13,23.10
2015,08,03,17,14,23.00
2015,08,03,17,15,23.00
2015,08,03,17,16,23.00
2015,08,03,17,17,23.00
2015,08,03,17,18,23.00
2015,08,03,17,19,23.00